Weather History for Land O' Lakes, WI

Change the Weather History Date:

Monday, February 4, 2013

  Actual Average (KEGV) Record (KEGV)
Temperature  
Mean Temperature -4 °F -  
Max Temperature 14 °F 32 °F 49 °F (1991)
Min Temperature -23 °F 13 °F -22 °F (2009)
Degree Days  
Heating Degree Days 70    
Moisture  
Dew Point -12 °F    
Average Humidity 70    
Maximum Humidity 85    
Minimum Humidity 41    
Precipitation  
Precipitation 0.00 in - - ()
Sea Level Pressure  
Sea Level Pressure 29.85 in    
Wind  
Wind Speed 1 mph (WNW)    
Max Wind Speed 9 mph    
Max Gust Speed -    
Visibility 10 miles    
Events      
Averages and records for this station are not official NWS values.
T = Trace of Precipitation, MM = Missing Value Source: NWS Daily Summary

Daily Weather History Graph

Daily Weather History Graph

Search for Another Location

Airport:

Trip Planner

Search our weather history database for the weather conditions in past years. The results will help you decide how hot, cold, wet, or windy it might be!

Date:

Astronomy

Feb. 04, 2013 Rise Set
Actual Time 7:15 AM CST 5:06 PM CST
Civil Twilight 6:43 AM CST 5:38 PM CST
Nautical Twilight 6:08 AM CST 6:14 PM CST
Astronomical Twilight 5:33 AM CST 6:49 PM CST
Moon 1:55 AM CST (2/4) 11:25 AM CST (2/4)
Length of Visible Light 10h 54m
Length of Day
9h 51m
Last Quarter, 37% of the Moon is Illuminated
Feb 4
Last Quarter
Feb 10
New
Feb 17
First Quarter
Feb 25
Full
Mar 4
Last Quarter

Hourly Weather History & Observations

Time (CST) Temp. Windchill Dew Point Humidity Pressure Visibility Wind Dir Wind Speed Gust Speed Precip Events Conditions
12:15 AM -7.6 °F - -11.2 °F 84% 29.90 in 10.0 mi Calm Calm - N/A   Mostly Cloudy
12:35 AM -7.6 °F - -13.0 °F 77% 29.90 in 10.0 mi Calm Calm - N/A   Overcast
12:55 AM -7.6 °F - -13.0 °F 77% 29.89 in 10.0 mi Calm Calm - N/A   Overcast
1:15 AM -9.4 °F - -14.8 °F 77% 29.89 in 10.0 mi Calm Calm - N/A   Scattered Clouds
1:35 AM -11.2 °F - -16.6 °F 77% 29.89 in 10.0 mi Calm Calm - N/A   Clear
1:55 AM -13.0 °F - -18.4 °F 77% 29.89 in 10.0 mi Calm Calm - N/A   Clear
2:15 AM -14.8 °F - -18.4 °F 84% 29.90 in 10.0 mi Calm Calm - N/A   Clear
2:35 AM -16.6 °F - -22.0 °F 76% 29.89 in 10.0 mi Calm Calm - N/A   Clear
2:55 AM -16.6 °F - -22.0 °F 76% 29.89 in 10.0 mi Calm Calm - N/A   Clear
3:15 AM -16.6 °F - -22.0 °F 76% 29.89 in 10.0 mi Calm Calm - N/A   Scattered Clouds
4:55 AM -18.4 °F - -25.6 °F 70% 29.89 in 10.0 mi Calm Calm - N/A   Clear
5:15 AM -20.2 °F - -25.6 °F 76% 29.89 in 10.0 mi Calm Calm - N/A   Clear
5:35 AM -22.0 °F - -27.4 °F 76% 29.89 in 10.0 mi Calm Calm - N/A   Clear
5:55 AM -22.0 °F - -27.4 °F 76% 29.89 in 10.0 mi Calm Calm - N/A   Clear
6:15 AM -23.8 °F - -29.2 °F 76% 29.89 in 10.0 mi Calm Calm - N/A   Clear
6:55 AM -23.8 °F - -31.0 °F 69% 29.89 in 10.0 mi Calm Calm - N/A   Clear
7:15 AM -23.8 °F - -31.0 °F 69% 29.89 in 10.0 mi Calm Calm - N/A   Scattered Clouds
7:35 AM -23.8 °F - -31.0 °F 69% 29.90 in 10.0 mi Calm Calm - N/A   Clear
7:55 AM -22.0 °F - -27.4 °F 76% 29.90 in 10.0 mi Calm Calm - N/A   Clear
8:15 AM -18.4 °F - -25.6 °F 70% 29.90 in 10.0 mi Calm Calm - N/A   Clear
8:35 AM -14.8 °F - -20.2 °F 77% 29.90 in 10.0 mi Calm Calm - N/A   Clear
8:55 AM -9.4 °F - -14.8 °F 77% 29.90 in 10.0 mi Calm Calm - N/A   Clear
9:15 AM 1.4 °F -6.2 °F -4.0 °F 78% 29.90 in 10.0 mi WNW 3.5 mph - N/A   Clear
9:35 AM 3.2 °F -6.2 °F -0.4 °F 85% 29.90 in 10.0 mi WNW 4.6 mph - N/A   Clear
9:55 AM 5.0 °F -4.1 °F -0.4 °F 78% 29.90 in 10.0 mi WNW 4.6 mph - N/A   Clear
10:15 AM 5.0 °F - -0.4 °F 78% 29.90 in 10.0 mi Calm Calm - N/A   Clear
10:35 AM 8.6 °F 0.1 °F -0.4 °F 67% 29.91 in 10.0 mi West 4.6 mph - N/A   Scattered Clouds
10:55 AM 8.6 °F -1.3 °F -0.4 °F 67% 29.91 in 10.0 mi NNW 5.8 mph - N/A   Scattered Clouds
11:15 AM 8.6 °F 2.0 °F -0.4 °F 67% 29.91 in 10.0 mi NNW 3.5 mph - N/A   Scattered Clouds
11:35 AM 8.6 °F 0.1 °F -0.4 °F 67% 29.90 in 10.0 mi NW 4.6 mph - N/A   Clear
11:55 AM 10.4 °F 2.2 °F -0.4 °F 62% 29.89 in 10.0 mi WNW 4.6 mph - N/A   Clear
12:15 PM 10.4 °F 4.0 °F -0.4 °F 62% 29.89 in 10.0 mi NNW 3.5 mph - N/A   Scattered Clouds
12:35 PM 12.2 °F 1.7 °F -0.4 °F 57% 29.88 in 10.0 mi West 6.9 mph - N/A   Scattered Clouds
12:55 PM 12.2 °F -0.2 °F -2.2 °F 53% 29.87 in 10.0 mi West 9.2 mph - N/A   Scattered Clouds
1:15 PM 12.2 °F 2.9 °F -2.2 °F 53% 29.86 in 10.0 mi WNW 5.8 mph - N/A   Clear
1:35 PM 12.2 °F 2.9 °F -2.2 °F 53% 29.85 in 10.0 mi West 5.8 mph - N/A   Clear
1:55 PM 12.2 °F 1.7 °F -4.0 °F 48% 29.84 in 10.0 mi NW 6.9 mph - N/A   Clear
2:15 PM 12.2 °F 2.9 °F -5.8 °F 45% 29.83 in 10.0 mi NNW 5.8 mph - N/A   Clear
2:35 PM 12.2 °F 2.9 °F -5.8 °F 45% 29.83 in 10.0 mi NW 5.8 mph - N/A   Clear
2:55 PM 14.0 °F 8.2 °F -4.0 °F 45% 29.83 in 10.0 mi West 3.5 mph - N/A   Clear
3:15 PM 14.0 °F 3.9 °F -5.8 °F 41% 29.83 in 10.0 mi WNW 6.9 mph - N/A   Clear
3:35 PM 12.2 °F 4.3 °F -7.6 °F 41% 29.83 in 10.0 mi WNW 4.6 mph - N/A   Clear
3:55 PM 12.2 °F - -5.8 °F 45% 29.83 in 10.0 mi Calm Calm - N/A   Clear
4:15 PM 12.2 °F 6.1 °F -4.0 °F 48% 29.83 in 10.0 mi WNW 3.5 mph - N/A   Clear
4:35 PM 12.2 °F 4.3 °F -4.0 °F 48% 29.84 in 10.0 mi West 4.6 mph - N/A   Clear
4:55 PM 10.4 °F 4.0 °F -4.0 °F 52% 29.84 in 10.0 mi WNW 3.5 mph - N/A   Clear
5:15 PM 8.6 °F 2.0 °F -4.0 °F 57% 29.84 in 10.0 mi West 3.5 mph - N/A   Clear
5:35 PM 6.8 °F - -4.0 °F 61% 29.83 in 10.0 mi Calm Calm - N/A   Clear
5:55 PM 1.4 °F - -4.0 °F 78% 29.82 in 10.0 mi Calm Calm - N/A   Clear
6:15 PM -0.4 °F - -5.8 °F 78% 29.81 in 10.0 mi Calm Calm - N/A   Clear
6:35 PM -2.2 °F - -5.8 °F 85% 29.82 in 10.0 mi Calm Calm - N/A   Clear
6:55 PM -4.0 °F - -7.6 °F 85% 29.82 in 10.0 mi Calm Calm - N/A   Clear
7:15 PM -5.8 °F - -9.4 °F 84% 29.82 in 10.0 mi Calm Calm - N/A   Clear
7:35 PM -7.6 °F - -11.2 °F 84% 29.81 in 10.0 mi Calm Calm - N/A   Clear
7:55 PM -7.6 °F - -11.2 °F 84% 29.80 in 10.0 mi Calm Calm - N/A   Clear
8:15 PM -7.6 °F - -13.0 °F 77% 29.80 in 10.0 mi Calm Calm - N/A   Clear
8:35 PM -9.4 °F - -14.8 °F 77% 29.80 in 10.0 mi Calm Calm - N/A   Clear
8:55 PM -9.4 °F - -13.0 °F 84% 29.80 in 10.0 mi Calm Calm - N/A   Clear
9:15 PM -9.4 °F - -14.8 °F 77% 29.79 in 10.0 mi Calm Calm - N/A   Clear
9:35 PM -9.4 °F - -14.8 °F 77% 29.78 in 10.0 mi Calm Calm - N/A   Clear
9:55 PM -9.4 °F - -13.0 °F 84% 29.77 in 10.0 mi Calm Calm - N/A   Mostly Cloudy
10:15 PM -9.4 °F - -13.0 °F 84% 29.76 in 10.0 mi Calm Calm - N/A   Scattered Clouds
10:35 PM -7.6 °F - -13.0 °F 77% 29.76 in 10.0 mi Calm Calm - N/A   Scattered Clouds
10:55 PM -7.6 °F - -13.0 °F 77% 29.76 in 10.0 mi Calm Calm - N/A   Mostly Cloudy
11:15 PM -7.6 °F - -11.2 °F 84% 29.76 in 10.0 mi Calm Calm - N/A   Overcast
11:35 PM -7.6 °F - -13.0 °F 77% 29.76 in 10.0 mi Calm Calm - N/A   Mostly Cloudy
11:55 PM -5.8 °F - -9.4 °F 84% 29.74 in 10.0 mi Calm Calm - N/A   Overcast